sat.trackr.live / text

‹ back to catalog

SPOT 6

NORAD 38755 · 2012-047A

PAYLOAD ACTIVE UNKNOWN

§ Identity

Operator
Country
FR
Launch date
2012-09-09
Launch site
SRILR
Launch vehicle
Mass (kg)
RCS (m²)
3.80

Purposes: earth_obs

External: N2YO · Heavens-Above · Gunter

§ Orbital elements

Epoch: 2026-09-20T03:25:49.539936Z

Period
98.73 min
Inclination
98.2030°
Eccentricity
0.0001275
Mean motion
14.58534144 rev/d
Perigee alt
697.0 km
Apogee alt
698.8 km
Semi-major
7,076.0 km
B*
4.7217e-5
RAAN
329.2950°
Arg perigee
75.4472°
Mean anomaly
284.6868°
Rev number
74,689

§ Raw data

SPOT 61 38755U 12047A   26263.14293449  .00000174  00000+0  47217-4 0  99932 38755  98.2030 329.2950 0001275  75.4472 284.6868 14.58534144746891

JSON: /api/v1/satellites/38755 · /tle

For live sub-satellite position, see the globe view (requires WebGL).

§ Visibility from observer

Set your observer location to see the next 7 days of passes ≥ 10°. The values pass through the URL so the page stays shareable.

No JS? Fill the form by hand. The geolocation button needs JavaScript.